Flag for Ukraine Weather past 2 weeks in Kyiv, Ukraine

Now
72 °F

Sunny.


Feels Like: 72 °F
Forecast: 65 / 80 °F
Wind: 13 mph from Northeast

Location: Kyiv

Current Time: Jul 11, 2014 at 8:07:45 PM

Latest Report: Jul 11, 2014 at 7:30 PM


Visibility: 10 mi

Pressure: 29.71 "Hg

Humidity: 78%

Dew point: 64 °F

Location of KyivLocation

Historic Weather in Kyiv — Graph

°F

Kyiv temperature yesterday

Maximum temperature yesterday: 72 °F (at 5:30 PM)
Minimum temperature yesterday: 61 °F (at 11:00 PM)
Average temperature yesterday: 65 °F

Past Weeks' High & Low Weather Summary

 TemperatureHumidityPressure
High82 °F (Jul 1, 3:00 PM)100% (Jun 27, 2:00 AM)30.15 "Hg (Jun 27, 2:00 AM)
Low46 °F (Jun 28, 5:00 AM)34% (Jun 30, 5:00 PM)29.71 "Hg (Jul 10, 5:00 PM)
Average66 °F71%29.99 "Hg
* Reported Jun 26 7:00 PM — Jul 11 7:00 PM, Kyiv, Weather by CustomWeather, © 2014

Note: Actual official high and low records may vary slightly from our data, if they occured in-between our weather recording intervals... More about our weather records

Advertising

Kyiv weather history for previous 24 hours

 ConditionsComfort  
Time TempWeatherWind HumidityBarometerVisibility
7:00 PM
Jul 11
72 °FSunny.10 mph73%29.71 "Hg10 mi
6:30 PM73 °FSunny.10 mph74%29.71 "Hg10 mi
6:00 PM73 °FSunny.10 mph78%29.71 "Hg10 mi
5:30 PM73 °FSunny.10 mph78%29.71 "Hg10 mi
5:00 PM73 °FSunny.8 mph78%29.74 "Hg10 mi
4:30 PM73 °FSunny.10 mph78%29.74 "Hg10 mi
4:00 PM72 °FPartly sunny.6 mph83%29.74 "HgN/A
3:30 PM70 °FPartly sunny.3 mph88%29.74 "HgN/A
3:00 PM70 °FSprinkles. Broken clouds.1 mph88%29.77 "HgN/A
2:30 PM68 °FSprinkles. Broken clouds.1 mph94%29.74 "HgN/A
2:00 PM68 °FSprinkles. Broken clouds.1 mph94%29.77 "HgN/A
1:30 PM66 °FThundershowers. Mostly cloudy.3 mph100%29.77 "HgN/A
1:00 PM66 °FThunderstorms. Mostly cloudy.1 mph94%29.77 "HgN/A
12:30 PM66 °FThunderstorms. Mostly cloudy.3 mph100%29.77 "Hg1 mi
12:00 PM70 °FThunderstorms. Partly sunny.1 mph88%29.74 "Hg5 mi
11:30 AM73 °FThunderstorms. Partly sunny.1 mph74%29.74 "HgN/A
11:00 AM75 °FPartly sunny.8 mph69%29.74 "HgN/A
10:30 AM73 °FPartly sunny.8 mph83%29.74 "HgN/A
10:00 AM73 °FPassing clouds.8 mph83%29.71 "HgN/A
9:30 AM72 °FSunny.8 mph83%29.71 "Hg10 mi
9:00 AM70 °FPartly sunny.3 mph88%29.74 "HgN/A
8:30 AM66 °FFog.6 mph100%29.74 "Hg3 mi
8:00 AM66 °FFog.6 mph94%29.74 "Hg2 mi
7:30 AM68 °FPassing clouds.3 mph100%29.71 "HgN/A
7:00 AM64 °FClear.No wind100%29.71 "Hg4 mi
6:30 AM63 °FFog.No wind100%29.71 "Hg1 mi
6:00 AM59 °FPartly sunny.No wind100%29.71 "Hg0 mi
5:30 AM57 °FFog.No wind100%29.71 "Hg1 mi
5:00 AM57 °FDense fog.No wind100%29.71 "Hg0 mi
4:30 AM57 °FPassing clouds.No wind100%29.71 "Hg0 mi
4:00 AM59 °FPassing clouds.No wind100%29.71 "Hg0 mi
3:30 AM57 °FFog.No wind100%29.71 "Hg0 mi
3:00 AM57 °FFog.No wind100%29.71 "Hg0 mi
2:30 AM59 °FFog.No wind100%29.71 "Hg0 mi
2:00 AM59 °FFog.No wind100%29.71 "Hg0 mi
1:50 AM59 °FFog.1 mph100%29.71 "Hg0 mi
1:30 AM59 °FDense fog.No wind100%29.71 "Hg0 mi
1:00 AM59 °FFog.No wind100%29.71 "Hg0 mi
12:30 AM61 °FLight fog.No wind100%29.71 "Hg0 mi
12:00 AM61 °FFog.No wind100%29.71 "Hg0 mi
11:30 PM
Jul 10
61 °FLight fog.No wind100%29.71 "Hg0 mi
11:00 PM61 °FLight fog.No wind100%29.74 "Hg0 mi
10:30 PM63 °FFog.1 mph100%29.71 "Hg3 mi
10:00 PM64 °FFog.1 mph94%29.71 "Hg4 mi
9:30 PM64 °FPassing clouds.3 mph100%29.71 "HgN/A
9:00 PM64 °FPassing clouds.3 mph100%29.71 "HgN/A
8:30 PM64 °FBroken clouds.3 mph100%29.71 "HgN/A
8:00 PM64 °FThundershowers. Broken clouds.1 mph100%29.71 "HgN/A
Weather by CustomWeather, © 2014

See weather overviewHow to use our weather pages